EW0765 Weather Reports


time (UTC)temp
C
wind
direction
speed
KPH
gust
KPH
rain 1hr
cm
rain 24hr
cm
rain mn
cm
humidity
%
barometer
mb
20260510120008 8 71 0.0 3.2 0.00 0.91 0.00 78 1015.0
20260510114507 8 104 1.6 9.7 0.00 0.91 0.00 79 1014.6
20260510113003 8 340 0.0 14.5 0.00 0.91 0.00 81 1014.3
20260510111608 8 346 0.0 6.4 0.00 0.91 0.00 84 1014.1
20260510110059 8 63 0.0 1.6 0.00 0.91 0.00 86 1013.7
20260510104612 8 30 0.0 1.6 0.00 0.91 0.00 86 1013.2
20260510103054 8 75 0.0 0.0 0.00 0.91 0.00 87 1012.8
20260510101552 8 65 0.0 0.0 0.00 0.91 0.00 87 1012.6
20260510100053 8 55 0.0 0.0 0.00 0.91 0.00 88 1012.4
20260510094549 8 55 0.0 0.0 0.00 0.91 0.00 88 1012.4
20260510093048 8 5 0.0 0.0 0.00 0.91 0.00 90 1012.1
20260510091545 8 59 0.0 0.0 0.00 0.91 0.00 91 1011.8
20260510090043 8 61 0.0 0.0 0.00 0.91 0.00 90 1011.5
20260510084541 9 61 0.0 0.0 0.00 0.91 0.00 90 1011.3
20260510083039 9 61 0.0 0.0 0.00 0.91 0.00 89 1011.2
20260510081542 9 61 0.0 0.0 0.00 0.91 0.00 88 1011.0
20260510080034 9 61 0.0 0.0 0.00 0.91 0.00 87 1010.7
20260510074535 10 61 0.0 0.0 0.00 0.91 0.00 86 1010.3
20260510073031 10 61 0.0 0.0 0.00 0.91 0.00 84 1010.1
20260510071528 10 61 0.0 0.0 0.00 0.91 0.00 83 1010.1
20260510070025 10 61 0.0 3.2 0.00 0.91 0.00 81 1009.9
20260510064526 10 77 0.0 1.6 0.00 0.91 0.00 84 1009.5
20260510063023 10 98 0.0 12.9 0.00 0.91 0.00 86 1009.5
20260510061530 10 80 0.0 12.9 0.00 0.91 0.00 86 1009.7
20260510060039 11 53 3.2 17.7 0.00 0.91 0.00 90 1009.4
20260510054515 12 41 0.0 0.0 0.00 0.91 0.00 95 1008.9
20260510053013 12 265 0.0 0.0 0.00 0.91 0.00 94 1008.7
20260510051512 12 265 0.0 0.0 0.00 0.91 0.00 94 1008.6
20260510050008 12 266 0.0 0.0 0.00 0.91 0.00 94 1008.0
20260510044506 12 265 0.0 0.0 0.00 0.91 0.00 94 1007.9
20260510043006 12 262 0.0 0.0 0.05 0.91 0.00 93 1006.9
20260510041508 12 262 0.0 0.0 0.10 0.91 0.00 93 1006.9
20260510040100 12 263 0.0 0.0 0.10 0.91 0.91 93 1006.8
20260510034559 12 263 0.0 0.0 0.10 0.91 0.91 93 1006.7
20260510033100 12 252 1.6 14.5 0.05 0.86 0.86 93 1007.2
20260510031627 12 271 0.0 0.0 0.03 0.81 0.81 93 1006.8
20260510030057 12 274 0.0 0.0 0.03 0.81 0.81 93 1006.9
20260510024558 12 274 0.0 0.0 0.03 0.81 0.81 93 1006.8
20260510023101 12 274 0.0 9.7 0.03 0.81 0.81 93 1006.7
20260510021556 12 242 0.0 4.8 0.00 0.79 0.79 94 1007.3
20260510020056 12 282 0.0 0.0 0.00 0.81 0.79 93 1006.5
20260510014555 12 283 0.0 0.0 0.00 0.81 0.79 93 1006.3
20260510013054 12 282 0.0 0.0 0.00 0.81 0.79 92 1006.2
20260510011609 13 283 0.0 0.0 0.00 0.81 0.79 92 1006.2
20260510010106 13 283 0.0 0.0 0.00 0.89 0.79 92 1006.1
20260510004554 13 283 0.0 0.0 0.00 0.89 0.79 92 1005.9
20260510003058 13 283 0.0 0.0 0.00 0.89 0.79 92 1006.0
20260510001553 13 284 0.0 0.0 0.03 0.89 0.79 92 1006.0
20260510000052 13 284 0.0 0.0 0.25 1.02 0.79 92 1006.0
20260509234556 13 266 0.0 0.0 0.66 1.02 0.79 92 1005.8
20260509233057 13 265 0.0 0.0 0.79 1.02 0.79 92 1005.9
20260509231559 13 259 0.0 14.5 0.76 0.99 0.76 91 1006.0
20260509230053 13 253 3.2 20.9 0.51 0.86 0.51 89 1006.4
20260509224549 16 309 8.0 29.0 0.10 0.46 0.10 77 1005.6
20260509223050 20 259 0.0 17.7 0.00 0.36 0.00 54 1003.6
20260509221548 20 248 0.0 6.4 0.00 0.36 0.00 54 1003.0
20260509220048 21 216 0.0 9.7 0.00 0.41 0.00 55 1003.4
20260509214547 21 194 0.0 12.9 0.00 0.41 0.00 53 1003.1
20260509213100 21 178 0.0 9.7 0.00 0.41 0.00 54 1003.1
20260509211610 21 279 0.0 19.3 0.00 0.41 0.00 57 1003.0
20260509210043 21 218 3.2 14.5 0.00 0.41 0.00 57 1003.3
20260509204556 21 253 3.2 14.5 0.00 0.41 0.00 56 1003.6
20260509203046 21 170 0.0 9.7 0.00 0.41 0.00 56 1003.9
20260509201537 21 175 3.2 16.1 0.00 0.41 0.00 56 1004.1
20260509200035 21 323 1.6 17.7 0.00 0.41 0.00 56 1004.4
20260509194533 21 200 0.0 14.5 0.00 0.41 0.00 58 1004.5
20260509193031 21 221 3.2 19.3 0.00 0.41 0.00 60 1004.7
20260509191529 20 180 0.0 11.3 0.00 0.41 0.00 62 1004.9
20260509190027 20 290 0.0 16.1 0.00 0.41 0.00 62 1005.4
20260509184525 20 314 3.2 14.5 0.00 0.41 0.00 63 1005.5
20260509183023 19 221 0.0 14.5 0.00 0.41 0.00 65 1005.5
20260509181521 19 259 0.0 16.1 0.00 0.41 0.00 62 1005.5
20260509180020 20 232 1.6 19.3 0.00 0.41 0.00 64 1005.5
20260509174518 19 229 3.2 17.7 0.00 0.41 0.00 64 1005.5
20260509173017 19 284 3.2 8.0 0.00 0.41 0.00 63 1005.9
20260509171514 18 241 0.0 8.0 0.00 0.41 0.00 66 1005.8
20260509170012 18 226 0.0 8.0 0.00 0.41 0.00 68 1005.8
20260509164510 18 209 0.0 6.4 0.00 0.41 0.00 69 1005.8
20260509163006 17 296 0.0 9.7 0.00 0.41 0.00 73 1005.8
20260509161505 17 253 0.0 9.7 0.00 0.41 0.00 71 1006.1
20260509154557 16 215 1.6 11.3 0.00 0.41 0.00 78 1006.5
20260509153056 15 292 1.6 12.9 0.00 0.41 0.00 78 1006.6
20260509151555 16 248 0.0 6.4 0.00 0.41 0.00 79 1006.4
20260509150051 15 212 0.0 11.3 0.00 0.41 0.00 83 1006.4
20260509144549 15 302 0.0 14.5 0.00 0.41 0.00 85 1006.5
20260509143050 13 182 0.0 3.2 0.00 0.41 0.00 89 1006.5
20260509141545 13 244 0.0 12.9 0.00 0.41 0.00 89 1006.4
20260509140046 13 282 0.0 6.4 0.00 0.41 0.00 90 1006.7
20260509134549 13 230 0.0 11.3 0.00 0.41 0.00 91 1006.5
20260509133048 13 309 0.0 4.8 0.00 0.41 0.00 92 1006.7
20260509131537 13 281 1.6 9.7 0.00 0.41 0.00 94 1006.7
20260509130033 12 288 0.0 3.2 0.00 0.41 0.00 94 1006.6
20260509124532 12 22 0.0 0.0 0.00 0.41 0.00 95 1006.8
20260509123032 12 329 0.0 3.2 0.00 0.41 0.00 95 1006.9
20260509121537 12 299 0.0 0.0 0.00 0.41 0.00 95 1007.1